Time,TemperatureF,DewpointF,PressureIn,WindDirection,WindDirectionDegrees,WindSpeedMPH,WindSpeedGustMPH,Humidity,HourlyPrecipIn,Conditions,Clouds,dailyrainin,SolarRadiationWatts/m^2,SoftwareType,DateUTC
2013-02-24 00:01:00,29.0,28.0,-100.00,East,89,2.0,7.0,95,0.00,,,0.00,0.000000,,2013-02-24 05:01:00,
2013-02-24 00:11:00,29.0,28.0,-100.00,East,89,2.0,7.0,95,0.00,,,0.00,0.000000,,2013-02-24 05:11:00,
2013-02-24 00:22:00,29.0,28.0,-100.00,East,89,2.0,7.0,95,0.00,,,0.00,0.000000,,2013-02-24 05:22:00,
2013-02-24 00:52:00,29.0,28.0,-100.00,NNE,26,2.0,8.0,95,0.00,,,0.00,0.000000,,2013-02-24 05:52:00,
2013-02-24 01:02:00,29.0,28.0,-100.00,NNE,26,2.0,8.0,95,0.00,,,0.00,0.000000,,2013-02-24 06:02:00,
2013-02-24 01:11:00,29.0,28.0,-100.00,NNE,26,2.0,8.0,95,0.00,,,0.00,0.000000,,2013-02-24 06:11:00,
2013-02-24 01:21:00,29.0,28.0,-100.00,NNE,26,2.0,8.0,95,0.00,,,0.00,0.000000,,2013-02-24 06:21:00,
2013-02-24 01:52:00,29.0,27.0,-100.00,ENE,71,2.0,6.0,94,0.00,,,0.00,0.000000,,2013-02-24 06:52:00,
2013-02-24 02:01:00,29.0,27.0,-100.00,ENE,71,2.0,6.0,94,0.00,,,0.00,0.000000,,2013-02-24 07:01:00,
2013-02-24 02:12:00,29.0,27.0,-100.00,ENE,71,2.0,6.0,94,0.00,,,0.00,0.000000,,2013-02-24 07:12:00,
2013-02-24 02:22:00,29.0,27.0,-100.00,ENE,71,2.0,6.0,94,0.00,,,0.00,0.000000,,2013-02-24 07:22:00,
2013-02-24 02:52:00,29.0,27.0,-100.00,ENE,69,3.0,7.0,94,0.00,,,0.00,0.000000,,2013-02-24 07:52:00,
2013-02-24 03:01:00,29.0,27.0,-100.00,ENE,69,3.0,7.0,94,0.00,,,0.00,0.000000,,2013-02-24 08:01:00,
2013-02-24 03:11:00,29.0,27.0,-100.00,ENE,69,3.0,7.0,94,0.00,,,0.00,0.000000,,2013-02-24 08:11:00,
2013-02-24 03:22:00,29.0,27.0,-100.00,ENE,69,3.0,7.0,94,0.00,,,0.00,0.000000,,2013-02-24 08:22:00,
2013-02-24 03:54:00,29.0,27.0,-100.00,North,2,3.0,6.0,94,0.00,,,0.00,0.000000,,2013-02-24 08:54:00,
2013-02-24 04:02:00,29.0,27.0,-100.00,North,2,3.0,6.0,94,0.00,,,0.00,0.000000,,2013-02-24 09:02:00,
2013-02-24 04:11:00,29.0,27.0,-100.00,North,2,3.0,6.0,94,0.00,,,0.00,0.000000,,2013-02-24 09:11:00,
2013-02-24 04:22:00,29.0,27.0,-100.00,North,2,3.0,6.0,94,0.00,,,0.00,0.000000,,2013-02-24 09:22:00,
2013-02-24 04:52:00,29.0,27.0,-100.00,NE,41,3.0,5.0,93,0.00,,,0.00,0.000000,,2013-02-24 09:52:00,
2013-02-24 05:01:00,29.0,27.0,-100.00,NE,41,3.0,5.0,93,0.00,,,0.00,0.000000,,2013-02-24 10:01:00,
2013-02-24 05:11:00,29.0,27.0,-100.00,NE,41,3.0,5.0,93,0.00,,,0.00,0.000000,,2013-02-24 10:11:00,
2013-02-24 05:22:00,29.0,27.0,-100.00,NE,41,3.0,5.0,93,0.00,,,0.00,0.000000,,2013-02-24 10:22:00,
2013-02-24 05:52:00,29.0,27.0,-100.00,NNE,32,2.0,6.0,93,0.00,,,0.00,0.000000,,2013-02-24 10:52:00,
2013-02-24 06:01:00,29.0,27.0,-100.00,NNE,32,2.0,6.0,93,0.00,,,0.00,0.000000,,2013-02-24 11:01:00,
2013-02-24 06:11:00,29.0,27.0,-100.00,NNE,32,2.0,6.0,93,0.00,,,0.00,0.000000,,2013-02-24 11:11:00,
2013-02-24 06:21:00,29.0,27.0,-100.00,NNE,32,2.0,6.0,93,0.00,,,0.00,0.000000,,2013-02-24 11:21:00,
2013-02-24 06:53:00,29.0,27.0,-100.00,NE,41,2.0,6.0,93,0.00,,,-99.99,0.000000,,2013-02-24 11:53:00,
2013-02-24 07:02:00,29.0,27.0,-100.00,NE,41,2.0,6.0,93,0.00,,,-99.99,0.000000,,2013-02-24 12:02:00,
2013-02-24 07:11:00,29.0,27.0,-100.00,NE,41,2.0,6.0,93,0.00,,,-99.99,0.000000,,2013-02-24 12:11:00,
2013-02-24 07:22:00,29.0,27.0,-100.00,NE,41,2.0,6.0,93,0.00,,,-99.99,0.000000,,2013-02-24 12:22:00,
2013-02-24 07:25:00,29.0,27.0,-100.00,East,92,2.0,9.0,91,0.00,,,0.00,0.000000,,2013-02-24 12:25:00,
2013-02-24 08:15:00,29.0,27.0,-100.00,East,92,2.0,9.0,91,0.00,,,0.00,0.000000,,2013-02-24 13:15:00,
2013-02-24 08:25:00,30.0,28.0,-100.00,NE,52,2.0,6.0,91,0.00,,,0.00,4.000000,,2013-02-24 13:25:00,
2013-02-24 08:56:00,30.0,28.0,-100.00,NE,52,2.0,6.0,91,0.00,,,0.00,4.000000,,2013-02-24 13:56:00,
2013-02-24 09:05:00,30.0,28.0,-100.00,NE,52,2.0,6.0,91,0.00,,,0.00,4.000000,,2013-02-24 14:05:00,
2013-02-24 09:14:00,30.0,28.0,-100.00,NE,52,2.0,6.0,91,0.00,,,0.00,4.000000,,2013-02-24 14:14:00,
2013-02-24 09:55:00,31.0,28.0,-100.00,NNE,33,3.0,6.0,88,0.00,,,0.00,10.000000,,2013-02-24 14:55:00,
2013-02-24 10:04:00,31.0,28.0,-100.00,NNE,33,3.0,6.0,88,0.00,,,0.00,10.000000,,2013-02-24 15:04:00,
2013-02-24 10:14:00,31.0,28.0,-100.00,NNE,33,3.0,6.0,88,0.00,,,0.00,10.000000,,2013-02-24 15:14:00,
2013-02-24 10:24:00,31.0,28.0,-100.00,NNE,33,3.0,6.0,88,0.00,,,0.00,10.000000,,2013-02-24 15:24:00,
2013-02-24 10:53:00,34.0,29.0,-100.00,East,99,3.0,10.0,83,0.00,,,0.00,17.000000,,2013-02-24 15:53:00,
2013-02-24 11:02:00,34.0,29.0,-100.00,East,99,3.0,10.0,83,0.00,,,0.00,17.000000,,2013-02-24 16:02:00,
2013-02-24 11:12:00,34.0,29.0,-100.00,East,99,3.0,10.0,83,0.00,,,0.00,17.000000,,2013-02-24 16:12:00,
2013-02-24 11:22:00,34.0,29.0,-100.00,East,99,3.0,10.0,83,0.00,,,0.00,17.000000,,2013-02-24 16:22:00,
2013-02-24 11:52:00,32.0,28.0,-100.00,SE,143,2.0,8.0,85,0.04,,,0.04,14.000000,,2013-02-24 16:52:00,
2013-02-24 12:01:00,32.0,28.0,-100.00,SE,143,2.0,8.0,85,0.04,,,0.04,14.000000,,2013-02-24 17:01:00,
2013-02-24 12:11:00,32.0,28.0,-100.00,SE,143,2.0,8.0,85,0.04,,,0.04,14.000000,,2013-02-24 17:11:00,
2013-02-24 12:22:00,32.0,28.0,-100.00,SE,143,2.0,8.0,85,0.04,,,0.04,14.000000,,2013-02-24 17:22:00,
2013-02-24 12:53:00,33.0,29.0,-100.00,SE,133,2.0,7.0,85,0.03,,,0.07,27.000000,,2013-02-24 17:53:00,
2013-02-24 13:02:00,33.0,29.0,-100.00,SE,133,2.0,7.0,85,0.03,,,0.07,27.000000,,2013-02-24 18:02:00,
2013-02-24 13:11:00,33.0,29.0,-100.00,SE,133,2.0,7.0,85,0.03,,,0.07,27.000000,,2013-02-24 18:11:00,
2013-02-24 13:22:00,33.0,29.0,-100.00,SE,133,2.0,7.0,85,0.03,,,0.07,27.000000,,2013-02-24 18:22:00,
2013-02-24 13:52:00,34.0,29.0,-100.00,ESE,117,3.0,7.0,82,0.06,,,0.13,69.000000,,2013-02-24 18:52:00,
2013-02-24 14:01:00,34.0,29.0,-100.00,ESE,117,3.0,7.0,82,0.06,,,0.13,69.000000,,2013-02-24 19:01:00,
2013-02-24 14:12:00,34.0,29.0,-100.00,ESE,117,3.0,7.0,82,0.06,,,0.13,69.000000,,2013-02-24 19:12:00,
2013-02-24 14:22:00,34.0,29.0,-100.00,ESE,117,3.0,7.0,82,0.06,,,0.13,69.000000,,2013-02-24 19:22:00,
2013-02-24 14:52:00,34.0,29.0,-100.00,WNW,282,2.0,5.0,82,0.09,,,0.22,128.000000,,2013-02-24 19:52:00,
2013-02-24 15:02:00,34.0,29.0,-100.00,WNW,282,2.0,5.0,82,0.09,,,0.22,128.000000,,2013-02-24 20:02:00,
2013-02-24 15:11:00,34.0,29.0,-100.00,WNW,282,2.0,5.0,82,0.09,,,0.22,128.000000,,2013-02-24 20:11:00,
2013-02-24 15:21:00,34.0,29.0,-100.00,WNW,282,2.0,5.0,82,0.09,,,0.22,128.000000,,2013-02-24 20:21:00,
2013-02-24 15:52:00,34.0,31.0,-100.00,NNW,343,1.0,3.0,88,0.06,,,0.28,97.000000,,2013-02-24 20:52:00,
2013-02-24 16:02:00,34.0,31.0,-100.00,NNW,343,1.0,3.0,88,0.06,,,0.28,97.000000,,2013-02-24 21:02:00,
2013-02-24 16:11:00,34.0,31.0,-100.00,NNW,343,1.0,3.0,88,0.06,,,0.28,97.000000,,2013-02-24 21:11:00,
2013-02-24 16:21:00,34.0,31.0,-100.00,NNW,343,1.0,3.0,88,0.06,,,0.28,97.000000,,2013-02-24 21:21:00,
2013-02-24 16:52:00,33.0,30.0,-100.00,NW,315,0.0,2.0,90,0.04,,,0.32,68.000000,,2013-02-24 21:52:00,
2013-02-24 17:01:00,33.0,30.0,-100.00,NW,315,0.0,2.0,90,0.04,,,0.32,68.000000,,2013-02-24 22:01:00,
2013-02-24 17:11:00,33.0,30.0,-100.00,NW,315,0.0,2.0,90,0.04,,,0.32,68.000000,,2013-02-24 22:11:00,
2013-02-24 17:22:00,33.0,30.0,-100.00,NW,315,0.0,2.0,90,0.04,,,0.32,68.000000,,2013-02-24 22:22:00,
2013-02-24 17:52:00,31.0,29.0,-100.00,WNW,288,0.0,2.0,93,0.00,,,0.32,11.000000,,2013-02-24 22:52:00,
2013-02-24 18:02:00,31.0,29.0,-100.00,WNW,288,0.0,2.0,93,0.00,,,0.32,11.000000,,2013-02-24 23:02:00,
2013-02-24 18:11:00,31.0,29.0,-100.00,WNW,288,0.0,2.0,93,0.00,,,0.32,11.000000,,2013-02-24 23:11:00,
2013-02-24 18:21:00,31.0,29.0,-100.00,WNW,288,0.0,2.0,93,0.00,,,0.32,11.000000,,2013-02-24 23:21:00,
2013-02-24 18:52:00,31.0,30.0,-100.00,WSW,250,1.0,2.0,95,0.00,,,0.32,0.000000,,2013-02-24 23:52:00,
2013-02-24 19:02:00,31.0,30.0,-100.00,WSW,250,1.0,2.0,95,0.00,,,0.32,0.000000,,2013-02-25 00:02:00,
2013-02-24 19:11:00,31.0,30.0,-100.00,WSW,250,1.0,2.0,95,0.00,,,0.32,0.000000,,2013-02-25 00:11:00,
2013-02-24 19:21:00,31.0,30.0,-100.00,WSW,250,1.0,2.0,95,0.00,,,0.32,0.000000,,2013-02-25 00:21:00,
2013-02-24 19:52:00,31.0,30.0,-100.00,West,276,2.0,4.0,96,0.00,,,0.32,0.000000,,2013-02-25 00:52:00,
2013-02-24 20:02:00,31.0,30.0,-100.00,West,276,2.0,4.0,96,0.00,,,0.32,0.000000,,2013-02-25 01:02:00,
2013-02-24 20:11:00,31.0,30.0,-100.00,West,276,2.0,4.0,96,0.00,,,0.32,0.000000,,2013-02-25 01:11:00,
2013-02-24 20:21:00,31.0,30.0,-100.00,West,276,2.0,4.0,96,0.00,,,0.32,0.000000,,2013-02-25 01:21:00,
2013-02-24 20:52:00,30.0,29.0,-100.00,West,278,3.0,7.0,95,0.00,,,0.32,0.000000,,2013-02-25 01:52:00,
2013-02-24 21:01:00,30.0,29.0,-100.00,West,278,3.0,7.0,95,0.00,,,0.32,0.000000,,2013-02-25 02:01:00,
2013-02-24 21:11:00,30.0,29.0,-100.00,West,278,3.0,7.0,95,0.00,,,0.32,0.000000,,2013-02-25 02:11:00,
2013-02-24 21:21:00,30.0,29.0,-100.00,West,278,3.0,7.0,95,0.00,,,0.32,0.000000,,2013-02-25 02:21:00,
2013-02-24 21:52:00,29.0,28.0,-100.00,West,273,3.0,6.0,95,0.00,,,0.32,0.000000,,2013-02-25 02:52:00,
2013-02-24 22:02:00,29.0,28.0,-100.00,West,273,3.0,6.0,95,0.00,,,0.32,0.000000,,2013-02-25 03:02:00,
2013-02-24 22:11:00,29.0,28.0,-100.00,West,273,3.0,6.0,95,0.00,,,0.32,0.000000,,2013-02-25 03:11:00,
2013-02-24 22:21:00,29.0,28.0,-100.00,West,273,3.0,6.0,95,0.00,,,0.32,0.000000,,2013-02-25 03:21:00,
2013-02-24 22:52:00,28.0,27.0,-100.00,West,267,3.0,6.0,95,0.00,,,0.32,0.000000,,2013-02-25 03:52:00,
2013-02-24 23:02:00,28.0,27.0,-100.00,West,267,3.0,6.0,95,0.00,,,0.32,0.000000,,2013-02-25 04:02:00,
2013-02-24 23:11:00,28.0,27.0,-100.00,West,267,3.0,6.0,95,0.00,,,0.32,0.000000,,2013-02-25 04:11:00,
2013-02-24 23:21:00,28.0,27.0,-100.00,West,267,3.0,6.0,95,0.00,,,0.32,0.000000,,2013-02-25 04:21:00,
2013-02-24 23:52:00,28.0,27.0,-100.00,West,261,3.0,5.0,95,0.00,,,0.32,0.000000,,2013-02-25 04:52:00,